Location: LewisvilleTX
(33.0462°N, 96.9942°W)
Time: 21:33:12
(UTC+00:00)

Envisat - Pass Details

Date: 03 October 2020
Orbit: 764 x 766 km, 98.1° (Epoch: 26 October)

Event Time Altitude Azimuth Distance (km) Brightness Sun altitude
Rises 11:54:58 0° 21° (NNE) 3,233 6.5 -6.9°
Reaches altitude 10° 11:57:24 10° 28° (NNE) 2,303 5.9 -6.4°
Maximum altitude 12:02:11 41° 99° (E) 1,097 4.6 -5.4°
Drops below altitude 10° 12:06:56 10° 169° (SSE) 2,290 5.7 -4.4°
Sets 12:09:21 0° 176° (S) 3,212 6.3 -3.9°
